Time,TemperatureF,DewpointF,PressureIn,WindDirection,WindDirectionDegrees,WindSpeedMPH,WindSpeedGustMPH,Humidity,HourlyPrecipIn,Conditions,Clouds,dailyrainin,SoftwareType,DateUTC
2013-05-27 00:05:00,57.5,48.9,30.18,North,360,0.0,0.0,73,0.00,,,0.00,Wunderground v.1.15,2013-05-27 04:05:00,
2013-05-27 00:14:00,57.4,48.8,30.18,North,360,0.0,0.0,73,0.00,,,0.00,Wunderground v.1.15,2013-05-27 04:14:00,
2013-05-27 00:19:00,57.4,48.8,30.18,North,360,0.0,0.0,73,0.00,,,0.00,Wunderground v.1.15,2013-05-27 04:19:00,
2013-05-27 00:24:00,57.4,48.8,30.18,North,360,0.0,0.0,73,0.00,,,0.00,Wunderground v.1.15,2013-05-27 04:24:00,
2013-05-27 00:29:00,57.3,48.7,30.18,North,360,0.0,0.0,73,0.00,,,0.00,Wunderground v.1.15,2013-05-27 04:29:00,
2013-05-27 00:34:00,57.2,49.0,30.18,North,360,0.0,0.0,74,0.00,,,0.00,Wunderground v.1.15,2013-05-27 04:34:00,
2013-05-27 00:39:00,57.1,48.5,30.18,North,360,0.0,0.0,73,0.00,,,0.00,Wunderground v.1.15,2013-05-27 04:39:00,
2013-05-27 00:44:00,57.1,48.5,30.18,North,360,0.0,0.0,73,0.00,,,0.00,Wunderground v.1.15,2013-05-27 04:44:00,
2013-05-27 00:49:00,57.1,48.5,30.18,North,360,0.0,0.0,73,0.00,,,0.00,Wunderground v.1.15,2013-05-27 04:49:00,
2013-05-27 00:54:00,57.2,49.0,30.18,North,360,0.0,0.0,74,0.00,,,0.00,Wunderground v.1.15,2013-05-27 04:54:00,
2013-05-27 01:04:00,57.2,49.0,30.18,North,360,0.0,0.0,74,0.00,,,0.00,Wunderground v.1.15,2013-05-27 05:04:00,
2013-05-27 01:14:00,57.1,48.5,30.18,North,360,0.0,0.0,73,0.00,,,0.00,Wunderground v.1.15,2013-05-27 05:14:00,
2013-05-27 01:19:00,57.2,49.0,30.18,North,360,0.0,0.0,74,0.00,,,0.00,Wunderground v.1.15,2013-05-27 05:19:00,
2013-05-27 01:29:00,57.2,48.6,30.18,North,360,0.0,0.0,73,0.00,,,0.00,Wunderground v.1.15,2013-05-27 05:29:00,
2013-05-27 01:34:00,57.1,48.5,30.18,North,360,0.0,0.0,73,0.00,,,0.00,Wunderground v.1.15,2013-05-27 05:34:00,
2013-05-27 01:44:00,56.8,48.2,30.18,North,360,0.0,0.0,73,0.00,,,0.00,Wunderground v.1.15,2013-05-27 05:44:00,
2013-05-27 01:49:00,56.8,48.2,30.18,North,360,0.0,0.0,73,0.00,,,0.00,Wunderground v.1.15,2013-05-27 05:49:00,
2013-05-27 01:54:00,56.6,48.4,30.18,North,360,0.0,0.0,74,0.00,,,0.00,Wunderground v.1.15,2013-05-27 05:54:00,
2013-05-27 01:59:00,56.6,48.8,30.18,North,360,0.0,0.0,75,0.00,,,0.00,Wunderground v.1.15,2013-05-27 05:59:00,
2013-05-27 02:04:00,56.4,48.6,30.17,North,360,0.0,0.0,75,0.00,,,0.00,Wunderground v.1.15,2013-05-27 06:04:00,
2013-05-27 02:14:00,56.1,48.6,30.17,North,360,0.0,0.0,76,0.00,,,0.00,Wunderground v.1.15,2013-05-27 06:14:00,
2013-05-27 02:24:00,55.9,48.4,30.17,North,360,0.0,0.0,76,0.00,,,0.00,Wunderground v.1.15,2013-05-27 06:24:00,
2013-05-27 02:29:00,55.8,48.3,30.17,North,360,0.0,0.0,76,0.00,,,0.00,Wunderground v.1.15,2013-05-27 06:29:00,
2013-05-27 02:39:00,55.5,48.8,30.17,North,360,0.0,0.0,78,0.00,,,0.00,Wunderground v.1.15,2013-05-27 06:39:00,
2013-05-27 02:44:00,55.4,48.7,30.17,North,360,0.0,0.0,78,0.00,,,0.00,Wunderground v.1.15,2013-05-27 06:44:00,
2013-05-27 02:49:00,55.3,48.9,30.17,North,360,0.0,0.0,79,0.00,,,0.00,Wunderground v.1.15,2013-05-27 06:49:00,
2013-05-27 02:54:00,55.2,48.8,30.17,North,360,0.0,0.0,79,0.00,,,0.00,Wunderground v.1.15,2013-05-27 06:54:00,
2013-05-27 02:59:00,55.1,48.7,30.17,North,360,0.0,0.0,79,0.00,,,0.00,Wunderground v.1.15,2013-05-27 06:59:00,
2013-05-27 03:04:00,54.9,48.5,30.17,North,360,0.0,0.0,79,0.00,,,0.00,Wunderground v.1.15,2013-05-27 07:04:00,
2013-05-27 03:14:00,54.7,48.6,30.17,North,360,0.0,0.0,80,0.00,,,0.00,Wunderground v.1.15,2013-05-27 07:14:00,
2013-05-27 03:19:00,54.6,48.6,30.17,North,360,0.0,0.0,80,0.00,,,0.00,Wunderground v.1.15,2013-05-27 07:19:00,
2013-05-27 03:29:00,54.4,48.7,30.17,North,360,0.0,0.0,81,0.00,,,0.00,Wunderground v.1.15,2013-05-27 07:29:00,
2013-05-27 03:34:00,54.2,48.5,30.17,North,360,0.0,0.0,81,0.00,,,0.00,Wunderground v.1.15,2013-05-27 07:34:00,
2013-05-27 03:39:00,54.2,48.5,30.18,North,360,0.0,0.0,81,0.00,,,0.00,Wunderground v.1.15,2013-05-27 07:39:00,
2013-05-27 03:44:00,54.2,48.5,30.18,North,360,0.0,0.0,81,0.00,,,0.00,Wunderground v.1.15,2013-05-27 07:44:00,
2013-05-27 03:49:00,54.1,48.7,30.17,North,360,0.0,0.0,82,0.00,,,0.00,Wunderground v.1.15,2013-05-27 07:49:00,
2013-05-27 03:54:00,53.9,48.9,30.17,North,360,0.0,0.0,83,0.00,,,0.00,Wunderground v.1.15,2013-05-27 07:54:00,
2013-05-27 03:59:00,53.8,48.8,30.17,North,360,0.0,0.0,83,0.00,,,0.00,Wunderground v.1.15,2013-05-27 07:59:00,
2013-05-27 04:04:00,53.8,49.1,30.18,North,360,0.0,0.0,84,0.00,,,0.00,Wunderground v.1.15,2013-05-27 08:04:00,
2013-05-27 04:14:00,53.8,48.8,30.17,North,360,0.0,0.0,83,0.00,,,0.00,Wunderground v.1.15,2013-05-27 08:14:00,
2013-05-27 04:19:00,53.7,48.3,30.18,North,360,0.0,0.0,82,0.00,,,0.00,Wunderground v.1.15,2013-05-27 08:19:00,
2013-05-27 04:24:00,53.7,48.3,30.18,North,360,0.0,0.0,82,0.00,,,0.00,Wunderground v.1.15,2013-05-27 08:24:00,
2013-05-27 04:29:00,53.7,48.7,30.17,North,360,0.0,0.0,83,0.00,,,0.00,Wunderground v.1.15,2013-05-27 08:29:00,
2013-05-27 04:34:00,53.7,48.7,30.17,North,360,0.0,0.0,83,0.00,,,0.00,Wunderground v.1.15,2013-05-27 08:34:00,
2013-05-27 04:39:00,53.6,48.6,30.17,North,360,0.0,0.0,83,0.00,,,0.00,Wunderground v.1.15,2013-05-27 08:39:00,
2013-05-27 04:44:00,53.5,48.5,30.17,North,360,0.0,0.0,83,0.00,,,0.00,Wunderground v.1.15,2013-05-27 08:44:00,
2013-05-27 04:54:00,53.3,48.6,30.18,North,360,0.0,0.0,84,0.00,,,0.00,Wunderground v.1.15,2013-05-27 08:54:00,
2013-05-27 04:59:00,53.2,48.5,30.18,North,360,0.0,0.0,84,0.00,,,0.00,Wunderground v.1.15,2013-05-27 08:59:00,
2013-05-27 05:04:00,53.0,48.3,30.18,North,360,0.0,0.0,84,0.00,,,0.00,Wunderground v.1.15,2013-05-27 09:04:00,
2013-05-27 05:14:00,52.9,48.5,30.18,North,360,0.0,0.0,85,0.00,,,0.00,Wunderground v.1.15,2013-05-27 09:14:00,
2013-05-27 05:19:00,52.8,48.4,30.18,North,360,0.0,0.0,85,0.00,,,0.00,Wunderground v.1.15,2013-05-27 09:19:00,
2013-05-27 05:24:00,52.8,48.7,30.18,North,360,0.0,0.0,86,0.00,,,0.00,Wunderground v.1.15,2013-05-27 09:24:00,
2013-05-27 05:29:00,52.7,48.6,30.18,North,360,0.0,0.0,86,0.00,,,0.00,Wunderground v.1.15,2013-05-27 09:29:00,
2013-05-27 05:39:00,52.7,48.9,30.18,North,360,0.0,0.0,87,0.00,,,0.00,Wunderground v.1.15,2013-05-27 09:39:00,
2013-05-27 05:44:00,52.6,48.5,30.18,North,360,0.0,0.0,86,0.00,,,0.00,Wunderground v.1.15,2013-05-27 09:44:00,
2013-05-27 05:49:00,52.4,48.6,30.18,North,360,0.0,0.0,87,0.00,,,0.00,Wunderground v.1.15,2013-05-27 09:49:00,
2013-05-27 05:54:00,52.2,48.4,30.18,North,360,0.0,0.0,87,0.00,,,0.00,Wunderground v.1.15,2013-05-27 09:54:00,
2013-05-27 05:59:00,52.2,48.4,30.18,North,360,0.0,0.0,87,0.00,,,0.00,Wunderground v.1.15,2013-05-27 09:59:00,
2013-05-27 06:04:00,52.2,48.4,30.18,North,360,0.0,0.0,87,0.00,,,0.00,Wunderground v.1.15,2013-05-27 10:04:00,
2013-05-27 06:14:00,52.1,48.3,30.19,North,360,0.0,0.0,87,0.00,,,0.00,Wunderground v.1.15,2013-05-27 10:14:00,
2013-05-27 06:24:00,52.1,48.3,30.19,North,360,0.0,0.0,87,0.00,,,0.00,Wunderground v.1.15,2013-05-27 10:24:00,
2013-05-27 06:29:00,52.1,48.7,30.19,North,360,0.0,0.0,88,0.00,,,0.00,Wunderground v.1.15,2013-05-27 10:29:00,
2013-05-27 06:34:00,52.1,48.7,30.19,North,360,0.0,0.0,88,0.00,,,0.00,Wunderground v.1.15,2013-05-27 10:34:00,
2013-05-27 06:39:00,52.1,48.3,30.20,North,360,0.0,0.0,87,0.00,,,0.00,Wunderground v.1.15,2013-05-27 10:39:00,
2013-05-27 06:44:00,52.1,48.3,30.20,North,360,0.0,0.0,87,0.00,,,0.00,Wunderground v.1.15,2013-05-27 10:44:00,
2013-05-27 06:49:00,52.1,48.3,30.21,North,360,0.0,0.0,87,0.00,,,0.00,Wunderground v.1.15,2013-05-27 10:49:00,
2013-05-27 06:54:00,52.1,48.7,30.21,North,360,0.0,0.0,88,0.00,,,0.00,Wunderground v.1.15,2013-05-27 10:54:00,
2013-05-27 06:59:00,52.1,48.7,30.21,North,360,0.0,0.0,88,0.00,,,0.00,Wunderground v.1.15,2013-05-27 10:59:00,
2013-05-27 07:05:00,52.0,48.6,30.22,North,360,0.0,0.0,88,0.00,,,0.00,Wunderground v.1.15,2013-05-27 11:05:00,
2013-05-27 07:14:00,51.8,48.4,30.22,North,360,0.0,0.0,88,0.00,,,0.00,Wunderground v.1.15,2013-05-27 11:14:00,
2013-05-27 07:19:00,51.7,48.6,30.22,North,360,0.0,0.0,89,0.00,,,0.00,Wunderground v.1.15,2013-05-27 11:19:00,
2013-05-27 07:24:00,51.6,48.5,30.22,North,360,0.0,0.0,89,0.00,,,0.00,Wunderground v.1.15,2013-05-27 11:24:00,
2013-05-27 07:29:00,51.5,48.7,30.22,North,360,0.0,0.0,90,0.00,,,0.00,Wunderground v.1.15,2013-05-27 11:29:00,
2013-05-27 07:34:00,51.3,48.5,30.22,North,360,0.0,0.0,90,0.00,,,0.00,Wunderground v.1.15,2013-05-27 11:34:00,
2013-05-27 07:39:00,51.3,48.8,30.22,North,360,0.0,0.0,91,0.00,,,0.00,Wunderground v.1.15,2013-05-27 11:39:00,
2013-05-27 07:44:00,51.2,48.7,30.22,North,360,0.0,0.0,91,0.00,,,0.00,Wunderground v.1.15,2013-05-27 11:44:00,
2013-05-27 07:49:00,51.2,48.7,30.22,North,360,0.0,0.0,91,0.00,,,0.00,Wunderground v.1.15,2013-05-27 11:49:00,
2013-05-27 07:54:00,51.3,49.1,30.22,North,360,0.0,0.0,92,0.00,,,0.00,Wunderground v.1.15,2013-05-27 11:54:00,
2013-05-27 07:59:00,51.5,49.3,30.22,North,360,0.0,0.0,92,0.00,,,0.00,Wunderground v.1.15,2013-05-27 11:59:00,
2013-05-27 08:05:00,51.6,49.6,30.22,North,360,0.0,0.0,93,0.00,,,0.00,Wunderground v.1.15,2013-05-27 12:05:00,
2013-05-27 08:14:00,51.9,49.9,30.22,North,360,0.0,0.0,93,0.00,,,0.00,Wunderground v.1.15,2013-05-27 12:14:00,
2013-05-27 08:19:00,52.0,50.0,30.22,North,360,0.0,0.0,93,0.00,,,0.00,Wunderground v.1.15,2013-05-27 12:19:00,
2013-05-27 08:24:00,52.1,50.1,30.22,North,360,0.0,0.0,93,0.00,,,0.00,Wunderground v.1.15,2013-05-27 12:24:00,
2013-05-27 08:29:00,52.2,50.2,30.22,North,360,0.0,0.0,93,0.00,,,0.00,Wunderground v.1.15,2013-05-27 12:29:00,
2013-05-27 08:39:00,52.3,50.3,30.22,North,360,0.0,0.0,93,0.00,,,0.00,Wunderground v.1.15,2013-05-27 12:39:00,
2013-05-27 08:44:00,52.5,50.5,30.22,North,360,0.0,0.0,93,0.00,,,0.00,Wunderground v.1.15,2013-05-27 12:44:00,
2013-05-27 08:49:00,52.8,50.8,30.22,North,5,0.0,0.0,93,0.00,,,0.00,Wunderground v.1.15,2013-05-27 12:49:00,
2013-05-27 08:54:00,53.2,51.2,30.22,North,5,0.0,0.0,93,0.00,,,0.00,Wunderground v.1.15,2013-05-27 12:54:00,
2013-05-27 08:59:00,53.8,51.5,30.22,North,11,0.0,1.0,92,0.00,,,0.00,Wunderground v.1.15,2013-05-27 12:59:00,
2013-05-27 09:04:00,54.4,51.8,30.21,South,169,0.0,1.0,91,0.00,,,0.00,Wunderground v.1.15,2013-05-27 13:04:00,
2013-05-27 09:14:00,55.7,52.5,30.22,SW,216,0.0,0.0,89,0.00,,,0.00,Wunderground v.1.15,2013-05-27 13:14:00,
2013-05-27 09:19:00,56.3,52.8,30.21,SW,216,0.0,0.0,88,0.00,,,0.00,Wunderground v.1.15,2013-05-27 13:19:00,
2013-05-27 09:24:00,56.8,53.0,30.22,SSW,208,0.0,0.0,87,0.00,,,0.00,Wunderground v.1.15,2013-05-27 13:24:00,
2013-05-27 09:34:00,57.7,53.2,30.21,SSW,213,0.0,0.0,85,0.00,,,0.00,Wunderground v.1.15,2013-05-27 13:34:00,
2013-05-27 09:39:00,58.2,53.7,30.22,SSW,202,0.0,1.0,85,0.00,,,0.00,Wunderground v.1.15,2013-05-27 13:39:00,
2013-05-27 09:49:00,59.0,53.5,30.21,South,190,0.0,0.0,82,0.00,,,0.00,Wunderground v.1.15,2013-05-27 13:49:00,
2013-05-27 09:54:00,59.1,52.9,30.21,SSW,207,1.0,1.0,80,0.00,,,0.00,Wunderground v.1.15,2013-05-27 13:54:00,
2013-05-27 09:59:00,59.7,53.5,30.21,SW,229,1.0,5.0,80,0.00,,,0.00,Wunderground v.1.15,2013-05-27 13:59:00,
2013-05-27 10:04:00,60.2,53.7,30.21,SSW,206,1.0,5.0,79,0.00,,,0.00,Wunderground v.1.15,2013-05-27 14:04:00,
2013-05-27 10:14:00,61.7,54.1,30.21,SSE,166,0.0,5.0,76,0.00,,,0.00,Wunderground v.1.15,2013-05-27 14:14:00,
2013-05-27 10:24:00,62.3,53.9,30.20,South,178,0.0,5.0,74,0.00,,,0.00,Wunderground v.1.15,2013-05-27 14:24:00,
2013-05-27 10:29:00,63.1,55.0,30.20,SW,228,0.0,5.0,75,0.00,,,0.00,Wunderground v.1.15,2013-05-27 14:29:00,
2013-05-27 10:34:00,63.4,54.6,30.20,SSW,195,0.0,5.0,73,0.00,,,0.00,Wunderground v.1.15,2013-05-27 14:34:00,
2013-05-27 10:44:00,64.0,55.5,30.20,SW,218,0.0,4.0,74,0.00,,,0.00,Wunderground v.1.15,2013-05-27 14:44:00,
2013-05-27 10:49:00,64.5,55.7,30.20,SSW,209,0.0,5.0,73,0.00,,,0.00,Wunderground v.1.15,2013-05-27 14:49:00,
2013-05-27 10:54:00,65.1,54.7,30.19,SSW,201,1.0,5.0,69,0.00,,,0.00,Wunderground v.1.15,2013-05-27 14:54:00,
2013-05-27 10:59:00,65.5,55.8,30.19,SSW,204,2.0,2.0,71,0.00,,,0.00,Wunderground v.1.15,2013-05-27 14:59:00,
2013-05-27 11:04:00,65.9,56.2,30.19,SSW,198,1.0,4.0,71,0.00,,,0.00,Wunderground v.1.15,2013-05-27 15:04:00,
2013-05-27 11:14:00,66.3,55.8,30.19,SSW,193,2.0,4.0,69,0.00,,,0.00,Wunderground v.1.15,2013-05-27 15:14:00,
2013-05-27 11:19:00,66.3,55.4,30.19,SSW,192,2.0,2.0,68,0.00,,,0.00,Wunderground v.1.15,2013-05-27 15:19:00,
2013-05-27 11:24:00,67.1,57.0,30.20,SSW,196,1.0,6.0,70,0.00,,,0.00,Wunderground v.1.15,2013-05-27 15:24:00,
2013-05-27 11:29:00,67.1,54.9,30.19,SSW,194,1.0,7.0,65,0.00,,,0.00,Wunderground v.1.15,2013-05-27 15:29:00,
2013-05-27 11:34:00,67.0,55.7,30.19,South,190,2.0,7.0,67,0.00,,,0.00,Wunderground v.1.15,2013-05-27 15:34:00,
2013-05-27 11:39:00,67.4,55.6,30.19,SSW,199,2.0,6.0,66,0.00,,,0.00,Wunderground v.1.15,2013-05-27 15:39:00,
2013-05-27 11:44:00,68.4,57.8,30.19,SW,221,1.0,6.0,69,0.00,,,0.00,Wunderground v.1.15,2013-05-27 15:44:00,
2013-05-27 11:49:00,68.8,57.0,30.19,SSW,203,1.0,1.0,66,0.00,,,0.00,Wunderground v.1.15,2013-05-27 15:49:00,
2013-05-27 11:54:00,68.8,56.1,30.19,SSW,197,1.0,6.0,64,0.00,,,0.00,Wunderground v.1.15,2013-05-27 15:54:00,
2013-05-27 11:59:00,69.1,57.3,30.18,SSW,202,1.0,1.0,66,0.00,,,0.00,Wunderground v.1.15,2013-05-27 15:59:00,
2013-05-27 12:04:00,68.9,55.8,30.19,South,190,2.0,4.0,63,0.00,,,0.00,Wunderground v.1.15,2013-05-27 16:04:00,
2013-05-27 12:14:00,69.4,56.3,30.18,SSW,201,1.0,9.0,63,0.00,,,0.00,Wunderground v.1.15,2013-05-27 16:14:00,
2013-05-27 12:19:00,69.9,58.4,30.18,SSW,209,0.0,9.0,67,0.00,,,0.00,Wunderground v.1.15,2013-05-27 16:19:00,
2013-05-27 12:29:00,71.1,58.3,30.18,SSW,200,1.0,1.0,64,0.00,,,0.00,Wunderground v.1.15,2013-05-27 16:29:00,
2013-05-27 12:34:00,71.0,58.6,30.18,SSW,207,1.0,9.0,65,0.00,,,0.00,Wunderground v.1.15,2013-05-27 16:34:00,
2013-05-27 12:39:00,71.3,59.4,30.18,WSW,242,0.0,9.0,66,0.00,,,0.00,Wunderground v.1.15,2013-05-27 16:39:00,
2013-05-27 12:44:00,71.3,57.2,30.18,SW,215,1.0,9.0,61,0.00,,,0.00,Wunderground v.1.15,2013-05-27 16:44:00,
2013-05-27 12:49:00,71.4,58.1,30.18,SSW,196,2.0,9.0,63,0.00,,,0.00,Wunderground v.1.15,2013-05-27 16:49:00,
2013-05-27 12:54:00,71.7,60.2,30.18,SSW,201,1.0,9.0,67,0.00,,,0.00,Wunderground v.1.15,2013-05-27 16:54:00,
2013-05-27 12:59:00,72.3,58.5,30.18,SSW,195,1.0,1.0,62,0.00,,,0.00,Wunderground v.1.15,2013-05-27 16:59:00,
2013-05-27 13:05:00,72.1,57.9,30.17,West,259,1.0,9.0,61,0.00,,,0.00,Wunderground v.1.15,2013-05-27 17:05:00,
2013-05-27 13:14:00,73.2,60.7,30.17,SW,225,0.0,9.0,65,0.00,,,0.00,Wunderground v.1.15,2013-05-27 17:14:00,
2013-05-27 13:19:00,73.0,60.5,30.17,SSW,207,1.0,1.0,65,0.00,,,0.00,Wunderground v.1.15,2013-05-27 17:19:00,
2013-05-27 13:24:00,72.8,58.1,30.17,SSW,210,1.0,9.0,60,0.00,,,0.00,Wunderground v.1.15,2013-05-27 17:24:00,
2013-05-27 13:34:00,73.1,60.6,30.16,SSW,213,1.0,9.0,65,0.00,,,0.00,Wunderground v.1.15,2013-05-27 17:34:00,
2013-05-27 13:39:00,73.6,60.2,30.16,SW,216,2.0,2.0,63,0.00,,,0.00,Wunderground v.1.15,2013-05-27 17:39:00,
2013-05-27 13:44:00,73.2,59.4,30.16,SW,215,1.0,9.0,62,0.00,,,0.00,Wunderground v.1.15,2013-05-27 17:44:00,
2013-05-27 13:54:00,74.2,59.4,30.16,SSW,194,0.0,9.0,60,0.00,,,0.00,Wunderground v.1.15,2013-05-27 17:54:00,
2013-05-27 13:59:00,74.5,62.4,30.16,SSW,208,1.0,1.0,66,0.00,,,0.00,Wunderground v.1.15,2013-05-27 17:59:00,
2013-05-27 14:04:00,74.1,60.2,30.16,SSW,194,1.0,8.0,62,0.00,,,0.00,Wunderground v.1.15,2013-05-27 18:04:00,
2013-05-27 14:14:00,74.7,59.4,30.15,SSW,196,2.0,2.0,59,0.00,,,0.00,Wunderground v.1.15,2013-05-27 18:14:00,
2013-05-27 14:24:00,74.7,59.9,30.14,SSW,202,0.0,2.0,60,0.00,,,0.00,Wunderground v.1.15,2013-05-27 18:24:00,
2013-05-27 14:29:00,74.3,58.6,30.14,SW,227,2.0,8.0,58,0.00,,,0.00,Wunderground v.1.15,2013-05-27 18:29:00,
2013-05-27 14:34:00,74.2,59.9,30.14,SSW,205,2.0,8.0,61,0.00,,,0.00,Wunderground v.1.15,2013-05-27 18:34:00,
2013-05-27 14:44:00,74.7,58.9,30.14,SSW,195,2.0,8.0,58,0.00,,,0.00,Wunderground v.1.15,2013-05-27 18:44:00,
2013-05-27 14:49:00,74.6,59.8,30.14,SSW,196,1.0,8.0,60,0.00,,,0.00,Wunderground v.1.15,2013-05-27 18:49:00,
2013-05-27 14:54:00,74.7,60.8,30.13,West,280,1.0,8.0,62,0.00,,,0.00,Wunderground v.1.15,2013-05-27 18:54:00,
2013-05-27 14:59:00,74.7,58.9,30.13,SSW,200,2.0,2.0,58,0.00,,,0.00,Wunderground v.1.15,2013-05-27 18:59:00,
2013-05-27 15:04:00,74.8,61.4,30.13,SSW,201,1.0,9.0,63,0.00,,,0.00,Wunderground v.1.15,2013-05-27 19:04:00,
2013-05-27 15:14:00,74.8,60.0,30.12,SSW,195,2.0,9.0,60,0.00,,,0.00,Wunderground v.1.15,2013-05-27 19:14:00,
2013-05-27 15:19:00,74.8,60.0,30.12,SSW,194,2.0,9.0,60,0.00,,,0.00,Wunderground v.1.15,2013-05-27 19:19:00,
2013-05-27 15:24:00,75.1,60.7,30.12,SSW,208,1.0,9.0,61,0.00,,,0.00,Wunderground v.1.15,2013-05-27 19:24:00,
2013-05-27 15:29:00,75.1,59.8,30.12,SSW,202,2.0,2.0,59,0.00,,,0.00,Wunderground v.1.15,2013-05-27 19:29:00,
2013-05-27 15:34:00,75.1,59.3,30.12,South,186,2.0,9.0,58,0.00,,,0.00,Wunderground v.1.15,2013-05-27 19:34:00,
2013-05-27 15:39:00,75.0,60.2,30.12,SSW,194,1.0,1.0,60,0.00,,,0.00,Wunderground v.1.15,2013-05-27 19:39:00,
2013-05-27 15:44:00,75.3,59.5,30.12,SSW,196,1.0,9.0,58,0.00,,,0.00,Wunderground v.1.15,2013-05-27 19:44:00,
2013-05-27 15:49:00,75.3,59.5,30.12,SSW,205,0.0,9.0,58,0.00,,,0.00,Wunderground v.1.15,2013-05-27 19:49:00,
2013-05-27 15:54:00,75.4,60.5,30.11,SSW,197,1.0,9.0,60,0.00,,,0.00,Wunderground v.1.15,2013-05-27 19:54:00,
2013-05-27 15:59:00,75.4,60.5,30.11,SSW,199,0.0,9.0,60,0.00,,,0.00,Wunderground v.1.15,2013-05-27 19:59:00,
2013-05-27 16:04:00,75.5,60.6,30.11,SSW,208,1.0,9.0,60,0.00,,,0.00,Wunderground v.1.15,2013-05-27 20:04:00,
2013-05-27 16:14:00,75.9,61.0,30.11,SSW,193,1.0,8.0,60,0.00,,,0.00,Wunderground v.1.15,2013-05-27 20:14:00,
2013-05-27 16:19:00,76.1,61.2,30.11,SSW,209,2.0,2.0,60,0.00,,,0.00,Wunderground v.1.15,2013-05-27 20:19:00,
2013-05-27 16:24:00,76.5,60.1,30.11,SSW,201,2.0,8.0,57,0.00,,,0.00,Wunderground v.1.15,2013-05-27 20:24:00,
2013-05-27 16:29:00,76.3,60.4,30.11,SSW,202,2.0,2.0,58,0.00,,,0.00,Wunderground v.1.15,2013-05-27 20:29:00,
2013-05-27 16:34:00,76.2,59.9,30.11,South,184,2.0,8.0,57,0.00,,,0.00,Wunderground v.1.15,2013-05-27 20:34:00,
2013-05-27 16:39:00,75.8,60.4,30.10,SSW,193,2.0,2.0,59,0.00,,,0.00,Wunderground v.1.15,2013-05-27 20:39:00,
2013-05-27 16:44:00,75.7,60.4,30.10,South,188,1.0,3.0,59,0.00,,,0.00,Wunderground v.1.15,2013-05-27 20:44:00,
2013-05-27 16:49:00,75.7,59.4,30.11,SSW,193,1.0,1.0,57,0.00,,,0.00,Wunderground v.1.15,2013-05-27 20:49:00,
2013-05-27 16:54:00,75.5,59.7,30.11,SSW,196,1.0,2.0,58,0.00,,,0.00,Wunderground v.1.15,2013-05-27 20:54:00,
2013-05-27 16:59:00,75.3,59.5,30.11,SSW,197,1.0,1.0,58,0.00,,,0.00,Wunderground v.1.15,2013-05-27 20:59:00,
2013-05-27 17:04:00,75.1,59.3,30.11,SSW,202,1.0,11.0,58,0.00,,,0.00,Wunderground v.1.15,2013-05-27 21:04:00,
2013-05-27 17:14:00,75.1,59.8,30.10,South,186,1.0,11.0,59,0.00,,,0.00,Wunderground v.1.15,2013-05-27 21:14:00,
2013-05-27 17:19:00,75.1,58.8,30.10,South,188,2.0,2.0,57,0.00,,,0.00,Wunderground v.1.15,2013-05-27 21:19:00,
2013-05-27 17:24:00,75.3,59.0,30.09,SSW,203,1.0,11.0,57,0.00,,,0.00,Wunderground v.1.15,2013-05-27 21:24:00,
2013-05-27 17:29:00,75.5,58.7,30.09,SSW,205,1.0,1.0,56,0.00,,,0.00,Wunderground v.1.15,2013-05-27 21:29:00,
2013-05-27 17:34:00,75.6,59.3,30.09,SSW,208,1.0,11.0,57,0.00,,,0.00,Wunderground v.1.15,2013-05-27 21:34:00,
2013-05-27 17:39:00,75.7,59.4,30.09,SSW,194,1.0,1.0,57,0.00,,,0.00,Wunderground v.1.15,2013-05-27 21:39:00,
2013-05-27 17:44:00,75.6,58.8,30.09,South,183,1.0,11.0,56,0.00,,,0.00,Wunderground v.1.15,2013-05-27 21:44:00,
2013-05-27 17:54:00,75.5,58.7,30.09,SSW,196,1.0,11.0,56,0.00,,,0.00,Wunderground v.1.15,2013-05-27 21:54:00,
2013-05-27 17:59:00,75.1,58.8,30.10,SSW,196,1.0,1.0,57,0.00,,,0.00,Wunderground v.1.15,2013-05-27 21:59:00,
2013-05-27 18:05:00,74.3,57.6,30.09,South,172,1.0,7.0,56,0.00,,,0.00,Wunderground v.1.15,2013-05-27 22:05:00,
2013-05-27 18:14:00,72.8,57.2,30.10,SSW,198,2.0,11.0,58,0.00,,,0.00,Wunderground v.1.15,2013-05-27 22:14:00,
2013-05-27 18:24:00,72.3,57.6,30.10,South,190,0.0,11.0,60,0.00,,,0.00,Wunderground v.1.15,2013-05-27 22:24:00,
2013-05-27 18:29:00,72.0,56.9,30.11,SSW,194,0.0,11.0,59,0.00,,,0.00,Wunderground v.1.15,2013-05-27 22:29:00,
2013-05-27 18:34:00,71.9,56.8,30.11,SSW,194,1.0,11.0,59,0.00,,,0.00,Wunderground v.1.15,2013-05-27 22:34:00,
2013-05-27 18:39:00,71.8,56.7,30.10,SSW,194,1.0,1.0,59,0.00,,,0.00,Wunderground v.1.15,2013-05-27 22:39:00,
2013-05-27 18:44:00,71.7,57.1,30.10,SSW,194,0.0,11.0,60,0.00,,,0.00,Wunderground v.1.15,2013-05-27 22:44:00,
2013-05-27 18:49:00,71.5,57.3,30.10,SSW,194,0.0,11.0,61,0.00,,,0.00,Wunderground v.1.15,2013-05-27 22:49:00,
2013-05-27 18:54:00,71.4,57.7,30.10,SSW,192,0.0,11.0,62,0.00,,,0.00,Wunderground v.1.15,2013-05-27 22:54:00,
2013-05-27 18:59:00,71.4,58.1,30.10,SW,216,0.0,11.0,63,0.00,,,0.00,Wunderground v.1.15,2013-05-27 22:59:00,
2013-05-27 19:05:00,71.3,57.6,30.10,SW,224,0.0,11.0,62,0.00,,,0.00,Wunderground v.1.15,2013-05-27 23:05:00,
2013-05-27 19:14:00,71.2,57.5,30.09,SSW,199,0.0,6.0,62,0.00,,,0.00,Wunderground v.1.15,2013-05-27 23:14:00,
2013-05-27 19:19:00,71.1,57.0,30.09,SSW,202,0.0,6.0,61,0.00,,,0.00,Wunderground v.1.15,2013-05-27 23:19:00,
2013-05-27 19:24:00,71.0,56.9,30.09,SW,219,0.0,6.0,61,0.00,,,0.00,Wunderground v.1.15,2013-05-27 23:24:00,
2013-05-27 19:29:00,70.9,57.2,30.10,SSW,205,0.0,6.0,62,0.00,,,0.00,Wunderground v.1.15,2013-05-27 23:29:00,
2013-05-27 19:39:00,70.6,57.4,30.10,SSW,210,0.0,6.0,63,0.00,,,0.00,Wunderground v.1.15,2013-05-27 23:39:00,
2013-05-27 19:44:00,70.4,57.2,30.09,SSW,194,0.0,6.0,63,0.00,,,0.00,Wunderground v.1.15,2013-05-27 23:44:00,
2013-05-27 19:49:00,70.2,57.0,30.09,WSW,254,0.0,6.0,63,0.00,,,0.00,Wunderground v.1.15,2013-05-27 23:49:00,
2013-05-27 19:54:00,70.0,56.8,30.09,SSW,198,1.0,6.0,63,0.00,,,0.00,Wunderground v.1.15,2013-05-27 23:54:00,
2013-05-27 20:04:00,69.9,57.2,30.09,SSW,208,1.0,8.0,64,0.00,,,0.00,Wunderground v.1.15,2013-05-28 00:04:00,
2013-05-27 20:14:00,69.5,56.8,30.08,SSW,210,1.0,8.0,64,0.00,,,0.00,Wunderground v.1.15,2013-05-28 00:14:00,
2013-05-27 20:24:00,69.3,56.6,30.08,SSW,192,0.0,8.0,64,0.00,,,0.00,Wunderground v.1.15,2013-05-28 00:24:00,
2013-05-27 20:29:00,69.1,56.4,30.08,South,186,0.0,8.0,64,0.00,,,0.00,Wunderground v.1.15,2013-05-28 00:29:00,
2013-05-27 20:34:00,69.0,56.7,30.09,SW,222,0.0,8.0,65,0.00,,,0.00,Wunderground v.1.15,2013-05-28 00:34:00,
2013-05-27 20:39:00,68.8,57.0,30.09,SSW,209,0.0,8.0,66,0.00,,,0.00,Wunderground v.1.15,2013-05-28 00:39:00,
2013-05-27 20:44:00,68.7,56.5,30.09,SSW,209,0.0,8.0,65,0.00,,,0.00,Wunderground v.1.15,2013-05-28 00:44:00,
2013-05-27 20:49:00,68.5,56.7,30.09,South,178,0.0,8.0,66,0.00,,,0.00,Wunderground v.1.15,2013-05-28 00:49:00,
2013-05-27 20:59:00,68.2,56.8,30.09,SW,221,0.0,8.0,67,0.00,,,0.00,Wunderground v.1.15,2013-05-28 00:59:00,
2013-05-27 21:05:00,68.0,57.0,30.10,South,187,0.0,8.0,68,0.00,,,0.00,Wunderground v.1.15,2013-05-28 01:05:00,
2013-05-27 21:14:00,67.8,56.9,30.10,South,171,0.0,8.0,68,0.00,,,0.00,Wunderground v.1.15,2013-05-28 01:14:00,
2013-05-27 21:24:00,67.7,56.8,30.11,SSW,211,0.0,8.0,68,0.00,,,0.00,Wunderground v.1.15,2013-05-28 01:24:00,
2013-05-27 21:34:00,67.6,57.1,30.12,SSW,206,0.0,8.0,69,0.00,,,0.00,Wunderground v.1.15,2013-05-28 01:34:00,
2013-05-27 21:39:00,67.6,57.5,30.12,SW,215,0.0,8.0,70,0.00,,,0.00,Wunderground v.1.15,2013-05-28 01:39:00,
2013-05-27 21:44:00,67.5,57.4,30.12,South,187,0.0,8.0,70,0.00,,,0.00,Wunderground v.1.15,2013-05-28 01:44:00,
2013-05-27 21:49:00,67.5,57.4,30.12,South,182,0.0,8.0,70,0.00,,,0.00,Wunderground v.1.15,2013-05-28 01:49:00,
2013-05-27 21:54:00,67.5,57.4,30.12,South,175,0.0,8.0,70,0.00,,,0.00,Wunderground v.1.15,2013-05-28 01:54:00,
2013-05-27 21:59:00,67.5,57.4,30.12,South,188,0.0,8.0,70,0.00,,,0.00,Wunderground v.1.15,2013-05-28 01:59:00,
2013-05-27 22:05:00,67.4,57.7,30.13,SSW,196,0.0,8.0,71,0.00,,,0.00,Wunderground v.1.15,2013-05-28 02:05:00,
2013-05-27 22:14:00,67.3,57.6,30.13,WNW,282,0.0,8.0,71,0.00,,,0.00,Wunderground v.1.15,2013-05-28 02:14:00,
2013-05-27 22:19:00,67.2,57.5,30.13,WNW,282,0.0,8.0,71,0.00,,,0.00,Wunderground v.1.15,2013-05-28 02:19:00,
2013-05-27 22:24:00,67.2,57.9,30.13,West,279,0.0,8.0,72,0.00,,,0.00,Wunderground v.1.15,2013-05-28 02:24:00,
2013-05-27 22:29:00,67.1,57.8,30.13,WSW,252,0.0,8.0,72,0.00,,,0.00,Wunderground v.1.15,2013-05-28 02:29:00,
2013-05-27 22:39:00,67.0,57.7,30.14,SSW,195,0.0,8.0,72,0.00,,,0.00,Wunderground v.1.15,2013-05-28 02:39:00,
2013-05-27 22:44:00,66.9,57.6,30.13,SSW,195,0.0,8.0,72,0.00,,,0.00,Wunderground v.1.15,2013-05-28 02:44:00,
2013-05-27 22:49:00,66.8,57.9,30.14,SSW,196,0.0,8.0,73,0.00,,,0.00,Wunderground v.1.15,2013-05-28 02:49:00,
2013-05-27 22:59:00,66.6,57.7,30.14,SSW,196,0.0,8.0,73,0.00,,,0.00,Wunderground v.1.15,2013-05-28 02:59:00,
2013-05-27 23:04:00,66.5,57.6,30.14,SSW,196,0.0,8.0,73,0.00,,,0.00,Wunderground v.1.15,2013-05-28 03:04:00,
2013-05-27 23:14:00,66.3,57.8,30.14,SSW,196,0.0,2.0,74,0.00,,,0.00,Wunderground v.1.15,2013-05-28 03:14:00,
2013-05-27 23:19:00,66.2,57.7,30.14,SSW,196,0.0,2.0,74,0.00,,,0.00,Wunderground v.1.15,2013-05-28 03:19:00,
2013-05-27 23:24:00,66.1,57.6,30.14,SSW,196,0.0,2.0,74,0.00,,,0.00,Wunderground v.1.15,2013-05-28 03:24:00,
2013-05-27 23:34:00,65.9,57.7,30.13,SW,224,0.0,2.0,75,0.00,,,0.00,Wunderground v.1.15,2013-05-28 03:34:00,
2013-05-27 23:39:00,65.8,57.7,30.13,SW,224,0.0,2.0,75,0.00,,,0.00,Wunderground v.1.15,2013-05-28 03:39:00,
2013-05-27 23:49:00,65.7,57.6,30.14,SW,224,0.0,2.0,75,0.00,,,0.00,Wunderground v.1.15,2013-05-28 03:49:00,
2013-05-27 23:54:00,65.6,57.5,30.14,SW,224,0.0,2.0,75,0.00,,,0.00,Wunderground v.1.15,2013-05-28 03:54:00,
2013-05-27 23:59:00,65.6,57.5,30.14,SW,224,0.0,2.0,75,0.00,,,0.00,Wunderground v.1.15,2013-05-28 03:59:00,